Terminal Aerodrome Forecast
Issued by NWS Albuquerque, NM

Home | Current Version | Previous Version | Text Only | Print | Product List | Glossary On
Versions: 1 2 3 4 5 6 7 8 9 10 11 12 13 14 15 16 17 18 19 20
000
FTUS45 KABQ 220500
TAFABQ
TAF
KABQ 220533Z 2206/2306 VRB06KT P6SM SCT050 BKN100
     FM221500 32006KT P6SM FEW060 SCT140
     FM222000 25008KT P6SM FEW070 SCT140=

USA.gov is the U.S. government's official web portal to all federal, state and local government web resources and services.